Location: Krakow
(50.0830°N, 19.9170°E)
Time: 11:47:19
(UTC+02:00)

Tiros 1 - Pass Details

Date: 12 February 2023
Orbit: 627 x 662 km, 48.4° (Epoch: 26 March)

Event Time Altitude Azimuth Distance (km) Brightness Sun altitude
Rises 23:01:25 0° 263° (W) 2,908 - -51.9°
Reaches altitude 10° 23:03:44 10° 262° (W) 2,001 - -52.0°
Maximum altitude 23:08:18 73° 179° (S) 660 - -52.3°
Drops below altitude 10° 23:12:55 10° 94° (E) 2,011 - -52.5°
Sets 23:15:15 0° 93° (E) 2,923 - -52.6°
